Temp
19 19 19 18 18 18 18 18 18 18 18 18 18 18 18 18 18 18 17 17 17 18 18 18 18 18 18 18 18 18 18 18 18 18 19 19 19 19 19 19 19 19
19 19 18 18 18 18 18 18 18 18 18 18 18 18 18 18 18 18 17 17 17 18 18 18 18 18 18 18 18 18 18 18 18 18 18 19 19 19 19 19 19 19
19 18 18 18 18 18 18 18 18 18 18 18 18 18 18 18 18 18 18 18 18 18 18 18 18 18 18 18 18 18 18 18 18 18 18 18 19 19 19 19 19 19
19 18 18 18 18 18 18 18 18 18 18 18 18 18 18 18 18 18 18 18 18 18 18 18 18 18 18 18 18 18 18 18 18 18 18 18 18 19 19 19 19 19
19 18 18 18 18 18 18 18 18 18 18 18 18 18 18 18 18 18 18 18 18 18 18 18 18 18 18 18 18 18 18 18 18 18 18 18 18 18 19 19 19 19
19 18 18 18 18 18 18 18 18 18 18 18 18 18 18 18 18 18 18 18 18 18 18 18 18 18 18 18 18 18 18 18 18 18 18 18 18 18 18 18 18 19
19 18 18 18 18 18 18 18 18 18 18 18 18 18 18 18 18 18 18 18 18 18 18 18 18 18 18 18 18 18 18 18 18 18 18 18 18 18 18 18 18 18
18 18 18 17 17 18 17 17 18 18 18 18 18 18 18 18 18 18 18 18 18 18 18 18 18 18 18 18 18 18 18 18 18 18 18 18 18 18 18 18 18 18
18 17 17 17 17 17 17 17 18 18 18 18 18 18 18 18 18 18 18 18 18 18 18 18 18 18 18 18 18 18 18 18 18 18 18 18 18 18 18 18 18 18
18 17 17 18 18 18 17 17 18 18 18 18 18 18 18 18 18 18 18 18 18 18 18 18 18 18 18 18 18 18 18 18 18 18 18 18 18 18 18 18 18 18
18 17 18 18 18 18 18 17 18 18 18 18 18 18 18 18 18 18 18 18 18 18 18 18 18 18 18 18 18 18 18 18 18 18 18 18 18 18 19 19 18 18
18 18 18 18 18 18 18 18 18 18 18 18 18 18 18 18 18 18 18 18 18 18 18 18 18 18 18 18 18 18 18 18 18 18 18 18 18 19 19 19 19 18
18 18 18 18 18 18 18 18 18 18 18 18 18 18 18 18 18 18 18 18 18 18 18 18 18 18 18 18 18 18 18 18 18 18 18 18 18 18 19 19 19 19
18 18 18 18 18 18 18 18 18 18 18 18 18 18 18 18 18 18 18 18 18 18 18 18 18 18 18 18 18 18 18 18 18 18 18 18 18 18 19 19 19 19
18 18 18 18 18 18 18 18 18 18 18 18 18 18 18 18 18 18 18 18 18 18 18 18 18 18 18 18 18 18 18 18 18 18 18 18 18 19 19 19 19 19
18 18 18 18 18 18 18 18 18 18 18 18 18 18 18 18 18 18 18 18 18 18 18 18 18 18 18 18 18 18 18 18 18 18 18 18 18 18 18 19 19 19
18 18 17 17 17 17 17 17 17 17 17 17 17 17 17 17 17 17 17 18 18 18 18 18 18 18 18 18 18 18 18 18 18 18 18 18 18 18 18 19 19 19
18 17 17 17 17 17 17 17 17 17 17 17 17 17 17 17 17 17 17 17 18 18 18 18 18 18 18 18 18 18 18 18 18 18 18 18 18 18 18 18 18 19
17 17 17 17 17 17 17 17 17 16 16 16 16 16 16 16 16 16 17 17 17 17 17 17 17 18 18 18 18 18 18 18 18 18 18 18 18 18 18 18 18 18
17 17 17 17 17 16 16 16 16 16 16 16 16 16 16 16 16 16 16 16 16 16 17 17 17 17 17 17 17 17 17 17 17 18 18 18 18 18 18 18 18 18
16 16 16 16 16 16 15 15 15 15 15 15 15 15 15 16 15 15 15 15 16 16 16 16 17 17 17 17 17 18 18 17 17 17 17 17 18 18 18 18 18 18
16 16 16 15 15 15 15 15 15 15 15 15 15 15 15 15 15 15 15 15 15 16 16 16 16 17 17 17 17 17 17 17 17 17 17 18 18 18 18 17 18 18
16 15 15 15 15 15 15 15 15 15 15 14 14 14 14 14 14 15 15 15 15 16 16 16 16 17 17 17 17 16 16 16 16 16 17 17 18 18 18 17 17 17
15 15 15 15 15 15 15 15 15 15 15 15 14 14 14 14 15 15 15 16 16 16 16 16 16 17 17 16 16 16 16 16 16 16 16 17 17 17 17 17 17 17
15 15 15 15 15 15 15 15 15 15 16 16 15 15 15 15 15 15 15 16 16 16 16 17 17 17 17 17 16 16 16 16 16 16 16 16 16 16 17 17 17 17
15 15 15 15 15 15 15 15 15 15 16 16 15 15 15 15 15 15 15 15 16 16 16 16 16 16 16 16 16 16 16 16 16 16 16 16 15 15 15 16 16 16
Height
1541 1542 1544 1545 1545 1546 1547 1548 1550 1551 1553 1554 1555 1556 1557 1558 1559 1560 1560 1561 1561 1562 1562 1563 1563 1563 1564 1565 1566 1567 1567 1568 1569 1570 1571 1571 1572 1573 1574 1575 1575 1576
1539 1540 1541 1542 1542 1543 1544 1545 1547 1548 1550 1552 1553 1554 1555 1556 1557 1557 1558 1559 1559 1559 1560 1560 1561 1561 1562 1563 1564 1564 1565 1566 1567 1568 1569 1569 1570 1571 1572 1573 1574 1574
1536 1537 1537 1538 1539 1540 1541 1542 1544 1546 1547 1549 1550 1552 1553 1554 1555 1555 1556 1556 1557 1557 1558 1558 1558 1559 1560 1561 1561 1562 1563 1564 1565 1566 1567 1567 1568 1569 1570 1571 1572 1572
1533 1534 1534 1535 1536 1537 1538 1539 1541 1543 1545 1546 1548 1550 1551 1552 1553 1553 1554 1554 1554 1555 1555 1556 1556 1557 1558 1558 1559 1560 1561 1562 1563 1564 1565 1565 1566 1566 1567 1569 1569 1570
1530 1531 1531 1532 1533 1535 1537 1538 1539 1541 1542 1544 1546 1547 1548 1549 1550 1551 1551 1552 1552 1553 1553 1553 1554 1554 1555 1556 1556 1557 1558 1559 1560 1561 1562 1563 1563 1564 1565 1566 1567 1568
1528 1528 1528 1529 1531 1534 1535 1536 1537 1539 1540 1542 1544 1545 1546 1547 1548 1549 1549 1550 1550 1550 1551 1551 1551 1552 1552 1553 1554 1555 1556 1557 1558 1559 1559 1560 1561 1562 1563 1563 1564 1565
1526 1526 1526 1527 1529 1530 1532 1533 1535 1536 1538 1540 1542 1543 1545 1545 1546 1547 1547 1548 1548 1549 1549 1549 1549 1550 1550 1550 1551 1552 1553 1555 1556 1557 1557 1558 1559 1559 1560 1561 1562 1562
1524 1524 1523 1524 1526 1527 1529 1531 1533 1534 1536 1538 1540 1541 1543 1544 1544 1545 1546 1546 1547 1547 1547 1547 1548 1548 1548 1548 1549 1550 1551 1552 1554 1554 1555 1556 1556 1557 1558 1558 1559 1560
1524 1523 1522 1523 1524 1525 1527 1529 1531 1533 1535 1536 1538 1540 1541 1542 1543 1544 1544 1545 1545 1545 1546 1546 1546 1547 1547 1547 1547 1548 1549 1550 1551 1552 1553 1553 1554 1554 1555 1556 1557 1557
1524 1523 1522 1522 1523 1524 1525 1527 1529 1531 1533 1535 1537 1538 1540 1541 1541 1542 1543 1543 1544 1544 1544 1545 1545 1545 1546 1546 1546 1546 1547 1548 1549 1550 1550 1551 1552 1552 1553 1554 1554 1554
1522 1521 1521 1521 1522 1523 1525 1527 1528 1530 1532 1534 1535 1537 1538 1539 1540 1540 1541 1542 1542 1543 1543 1543 1543 1544 1544 1545 1545 1545 1545 1546 1546 1547 1548 1549 1549 1550 1550 1551 1551 1552
1519 1520 1520 1520 1522 1523 1524 1526 1528 1529 1531 1532 1534 1535 1536 1537 1538 1539 1540 1540 1540 1541 1541 1541 1542 1542 1542 1543 1543 1544 1544 1544 1544 1545 1546 1546 1547 1547 1548 1548 1549 1549
1517 1518 1519 1520 1521 1522 1524 1525 1527 1528 1530 1531 1532 1533 1534 1535 1536 1537 1537 1538 1538 1538 1539 1539 1539 1540 1541 1541 1541 1542 1542 1542 1542 1543 1543 1544 1544 1545 1546 1546 1546 1546
1516 1517 1518 1519 1520 1522 1523 1525 1526 1527 1528 1530 1531 1532 1533 1534 1534 1535 1535 1536 1536 1536 1537 1537 1537 1538 1539 1539 1539 1539 1539 1540 1540 1540 1540 1541 1542 1542 1543 1544 1544 1544
1516 1516 1517 1519 1520 1521 1523 1524 1525 1526 1527 1528 1529 1530 1531 1532 1532 1533 1533 1534 1534 1534 1535 1535 1535 1536 1536 1536 1537 1537 1538 1538 1538 1538 1538 1538 1539 1540 1541 1541 1542 1542
1515 1516 1517 1519 1520 1521 1522 1523 1524 1525 1526 1527 1528 1528 1529 1529 1530 1531 1531 1532 1532 1533 1533 1534 1534 1534 1534 1534 1535 1535 1536 1536 1536 1536 1536 1536 1536 1537 1538 1538 1539 1540
1516 1516 1517 1518 1520 1521 1522 1523 1523 1524 1525 1526 1526 1527 1528 1528 1528 1529 1529 1530 1531 1531 1532 1532 1532 1532 1532 1533 1533 1533 1534 1534 1534 1534 1534 1534 1534 1534 1535 1536 1537 1537
1516 1517 1518 1519 1520 1521 1522 1522 1523 1523 1524 1524 1525 1525 1526 1526 1527 1527 1527 1528 1529 1529 1530 1530 1530 1530 1530 1531 1531 1531 1531 1531 1532 1532 1531 1532 1532 1532 1533 1533 1534 1534
1516 1517 1518 1519 1519 1520 1521 1521 1522 1522 1523 1523 1523 1524 1524 1524 1525 1525 1525 1526 1526 1527 1527 1527 1528 1528 1528 1528 1528 1528 1529 1529 1529 1529 1529 1529 1529 1529 1530 1530 1531 1531
1516 1516 1517 1518 1519 1519 1520 1520 1520 1521 1521 1521 1521 1521 1522 1522 1522 1523 1523 1524 1524 1525 1525 1525 1526 1526 1526 1526 1526 1526 1526 1526 1526 1526 1526 1526 1527 1527 1527 1527 1528 1528
1515 1515 1516 1517 1518 1518 1519 1519 1519 1519 1519 1519 1519 1518 1519 1519 1519 1520 1521 1521 1522 1523 1523 1523 1523 1524 1524 1524 1524 1523 1524 1524 1524 1523 1523 1524 1524 1524 1524 1525 1525 1525
1513 1514 1515 1516 1516 1517 1517 1517 1517 1517 1517 1516 1516 1516 1515 1516 1516 1517 1518 1519 1519 1520 1521 1521 1520 1520 1520 1520 1520 1521 1521 1521 1521 1521 1521 1520 1521 1521 1521 1522 1523 1522
1512 1513 1514 1515 1515 1515 1515 1515 1515 1515 1515 1514 1514 1514 1514 1514 1514 1515 1515 1516 1516 1517 1517 1517 1517 1517 1517 1517 1517 1518 1518 1518 1518 1517 1517 1517 1517 1518 1518 1519 1520 1520
1511 1512 1513 1513 1514 1514 1514 1513 1513 1513 1513 1512 1512 1512 1512 1512 1513 1513 1513 1513 1513 1514 1514 1514 1513 1513 1514 1514 1515 1515 1515 1515 1515 1514 1514 1514 1514 1515 1515 1516 1517 1517
1509 1510 1511 1512 1512 1512 1512 1512 1512 1511 1511 1511 1511 1511 1511 1511 1511 1511 1511 1511 1511 1511 1511 1511 1511 1511 1511 1511 1511 1511 1511 1512 1511 1511 1511 1511 1511 1512 1512 1513 1514 1514
1508 1509 1510 1510 1510 1510 1510 1510 1510 1510 1509 1509 1510 1509 1509 1509 1509 1509 1509 1509 1509 1509 1509 1509 1509 1509 1509 1509 1508 1508 1508 1508 1508 1508 1508 1508 1509 1509 1509 1510 1511 1511
Wind_Speed
24 25 25 24 23 21 19 18 18 18 18 18 17 17 17 17 17 18 19 19 20 20 19 18 18 18 17 17 17 18 17 16 16 16 17 19 19 19 18 17 15 13
25 26 25 24 24 22 20 19 18 18 19 18 18 18 18 19 19 20 20 20 20 20 20 20 20 20 19 18 19 19 19 17 16 16 17 19 20 20 19 18 17 15
25 26 26 25 24 23 22 20 19 19 19 19 19 20 20 20 20 20 20 21 21 21 21 21 21 21 21 20 20 20 21 20 18 16 16 18 19 21 21 20 19 17
24 25 26 26 25 25 23 21 19 19 19 19 19 19 20 21 21 21 21 21 21 22 21 21 21 22 22 21 21 21 21 21 19 16 16 16 18 20 22 22 21 19
21 22 24 25 25 25 23 21 19 18 18 19 18 19 20 21 21 21 21 21 21 22 22 22 22 21 21 21 20 21 21 21 20 18 17 17 17 19 21 22 22 21
20 20 21 21 21 21 20 19 18 18 18 18 18 19 19 19 19 20 20 20 20 20 20 20 20 20 19 19 19 20 21 21 20 19 19 19 18 19 20 21 22 22
20 20 19 18 18 18 18 18 18 18 18 18 18 18 18 18 18 18 18 18 17 17 16 16 16 16 16 16 17 18 19 20 20 19 20 20 19 20 21 20 21 22
20 20 19 17 16 16 16 16 17 18 17 17 17 18 18 17 17 16 17 17 16 15 15 14 14 14 14 14 15 16 17 18 19 19 19 19 19 20 20 20 20 20
20 19 17 15 14 14 15 16 17 16 16 16 17 17 17 16 16 17 17 17 17 15 15 15 14 14 14 14 14 14 15 16 17 18 19 18 18 19 19 19 20 19
18 16 15 13 13 14 14 14 15 15 15 16 17 17 16 16 17 18 18 18 17 16 16 15 16 15 15 15 15 15 15 15 16 17 19 19 19 19 19 18 18 17
14 14 14 12 11 12 12 12 13 14 14 15 17 17 16 16 16 18 19 19 18 17 16 16 17 17 16 15 15 15 16 16 16 17 18 19 20 20 19 17 16 16
13 13 12 11 9 10 10 11 13 13 14 15 16 17 16 15 15 16 17 18 17 17 17 17 17 17 17 16 16 16 16 16 16 17 17 18 19 19 18 17 17 16
11 11 11 10 10 10 11 12 12 13 13 13 14 14 14 14 14 15 16 17 16 16 16 16 16 17 17 17 17 17 17 16 16 16 17 18 18 18 19 19 18 17
9 10 10 11 10 10 11 11 11 11 11 11 12 13 13 14 15 15 16 16 16 15 15 16 16 16 16 18 18 17 16 15 15 16 17 17 18 18 19 19 19 18
9 10 9 9 8 8 8 9 9 10 10 10 11 12 13 15 15 16 16 15 15 14 15 15 16 15 16 18 17 16 15 15 15 16 16 17 17 17 18 19 19 19
10 8 7 6 5 5 6 7 7 8 8 8 9 9 9 10 12 12 12 12 13 13 14 15 15 16 17 17 16 14 14 14 15 16 16 17 17 17 18 19 20 20
9 7 6 5 5 5 5 5 6 6 7 7 8 8 8 8 9 10 10 10 11 12 12 13 14 15 16 16 15 15 15 15 14 15 15 16 16 17 19 20 21 21
8 8 7 7 6 6 6 6 7 8 9 10 11 11 11 11 11 11 11 11 11 11 11 11 12 13 13 14 15 15 16 17 16 16 16 16 16 17 18 19 20 21
9 8 8 7 7 7 8 9 10 12 13 13 14 15 15 15 14 14 13 13 13 13 13 12 12 12 12 12 13 14 16 17 18 18 18 17 17 18 18 19 20 21
9 8 8 8 8 9 10 11 12 13 14 15 16 16 17 17 17 17 16 16 16 15 15 15 14 13 13 12 12 13 15 16 17 18 19 19 19 19 19 20 20 21
8 8 8 9 9 10 11 12 13 14 14 15 15 15 16 17 17 18 18 19 19 18 18 18 17 17 16 15 15 15 16 17 17 18 19 20 20 21 21 21 21 21
8 8 9 10 10 11 12 13 13 14 13 13 13 12 12 13 14 16 17 18 19 20 20 21 21 21 21 20 20 20 20 20 20 19 19 20 20 21 21 22 22 23
8 9 10 10 11 12 13 13 14 13 13 12 11 10 10 11 12 13 14 16 17 19 20 20 21 22 22 21 21 21 22 22 22 22 22 21 20 20 20 21 22 23
8 9 9 10 12 13 13 13 13 12 12 12 11 10 10 10 11 12 13 14 15 16 17 18 19 20 20 19 19 20 21 22 23 23 24 23 23 22 21 20 20 21
8 9 10 11 12 13 13 13 12 12 11 11 11 11 11 10 9 10 11 13 13 14 15 16 18 19 19 19 19 21 21 22 23 23 24 24 24 24 24 22 20 19
8 9 10 11 12 13 13 13 12 11 11 11 11 11 11 11 10 10 11 12 13 14 14 16 17 17 18 19 19 20 20 21 22 23 23 24 24 24 24 24 22 20
Wind_Direction
242 243 244 247 249 250 247 245 246 248 252 254 256 260 262 264 265 266 267 267 267 268 266 263 261 260 259 256 254 253 251 250 250 249 247 244 242 242 246 251 257 265
244 245 246 246 246 247 246 243 244 247 250 253 254 257 259 260 261 261 262 263 263 265 265 264 263 262 261 260 256 253 249 247 248 251 251 247 242 240 243 249 254 261
246 247 248 247 245 244 243 241 242 246 249 250 250 252 255 257 257 257 258 259 262 264 264 264 263 262 262 262 259 255 249 246 247 251 255 252 245 241 242 247 253 257
246 247 248 248 245 242 240 238 240 243 247 248 248 250 253 255 255 255 256 258 261 262 261 261 261 260 260 260 258 255 251 248 247 250 254 256 252 245 243 246 252 256
244 245 246 248 247 245 240 236 238 242 244 246 247 248 251 254 255 254 255 257 258 259 259 259 259 259 259 258 255 252 251 249 248 250 254 255 254 251 248 248 251 255
242 241 243 246 248 245 239 234 237 240 242 244 246 247 250 253 254 253 254 255 256 256 256 257 257 257 257 256 253 249 249 250 250 253 257 257 255 252 249 249 252 255
245 243 242 243 243 239 234 231 235 238 241 244 245 245 248 250 251 252 253 253 252 251 252 254 254 253 253 253 251 247 247 250 252 255 259 259 257 253 248 249 252 255
244 245 244 242 241 238 232 229 233 237 241 243 243 242 244 246 248 249 251 252 252 250 250 250 250 248 247 247 247 245 244 249 252 256 258 258 257 254 249 249 253 257
244 245 245 243 245 244 237 233 236 238 240 243 242 241 242 246 248 249 251 253 255 254 251 250 250 248 245 243 243 241 241 245 251 255 258 257 255 252 250 251 254 259
244 240 240 242 246 246 241 237 238 238 240 243 243 242 245 250 250 249 252 256 258 257 254 254 255 253 249 246 244 242 241 244 248 253 256 256 253 252 252 252 252 255
238 230 235 241 244 244 241 238 238 239 242 245 244 244 249 253 250 248 252 258 261 260 257 257 258 256 253 249 247 246 244 244 247 250 252 253 252 253 252 249 247 248
235 230 236 239 238 237 236 236 238 241 243 244 244 246 251 254 251 249 252 258 263 262 261 261 259 257 254 252 250 250 248 247 248 250 252 253 253 253 251 248 245 243
228 224 226 229 230 230 231 234 237 241 243 243 245 248 251 253 253 252 255 259 263 262 261 262 261 257 253 252 250 249 250 251 252 253 255 255 255 254 251 249 247 241
209 209 214 223 229 230 230 233 238 243 247 248 250 253 254 254 253 253 255 258 260 261 260 260 260 257 254 252 250 249 251 255 258 259 259 258 257 255 252 250 247 243
207 210 216 223 227 228 230 234 239 246 251 253 255 256 258 258 256 254 255 258 259 259 257 256 256 255 253 254 253 252 254 257 259 260 260 259 258 255 253 251 248 245
219 218 220 223 222 218 219 225 234 241 246 251 253 257 261 262 261 258 257 258 258 257 256 256 255 253 253 256 255 253 256 259 260 261 260 260 261 260 259 256 253 252
225 222 223 226 223 218 215 219 229 238 244 248 250 252 256 258 259 258 254 252 253 253 256 258 257 256 257 259 259 257 259 261 262 262 263 262 264 265 265 264 261 258
222 222 229 237 239 235 234 241 256 266 270 271 269 266 266 264 262 260 259 258 257 256 257 257 257 257 257 258 260 261 263 264 264 264 264 264 265 267 268 269 266 263
225 228 232 240 242 243 250 261 271 278 281 282 281 278 277 274 270 266 264 264 264 264 264 263 262 260 259 260 262 264 264 264 264 264 264 264 264 264 266 267 267 266
227 231 234 242 249 255 264 270 273 276 277 277 276 273 270 268 266 263 261 261 262 264 267 269 268 265 263 262 262 263 263 263 264 266 267 267 266 265 264 264 264 265
229 236 245 254 260 264 268 272 274 276 277 275 273 269 263 259 255 254 254 255 256 259 262 266 268 268 267 267 268 269 267 265 264 265 266 267 266 265 265 265 265 264
236 244 252 260 266 272 276 280 282 283 284 283 281 276 265 255 248 247 248 249 252 254 257 261 264 266 267 269 271 272 270 268 266 265 265 264 263 263 263 265 266 264
237 243 252 262 272 280 285 287 290 293 295 295 293 287 273 257 250 249 248 249 251 253 256 259 262 264 266 268 270 270 269 268 267 266 266 265 264 264 263 262 263 265
241 250 261 271 279 285 288 289 294 298 300 300 298 294 285 270 261 259 257 257 257 258 260 263 264 266 267 267 267 267 266 266 266 267 267 266 266 266 265 263 261 263
247 259 269 278 284 288 290 292 296 298 300 301 299 297 297 292 280 270 267 266 265 264 264 263 265 266 268 267 267 267 268 269 270 270 270 269 268 268 267 266 262 261
255 266 275 282 285 287 289 292 296 297 297 297 295 295 297 296 289 279 273 271 269 268 268 267 269 270 270 271 272 272 274 275 274 273 272 270 269 268 269 268 266 264